Location: *
(18.5200°S, 46.4500°E)
Time: 00:33:54
(UTC+00:00)

Okean-O - Pass Details

Date: 19 July 2019
Orbit: 638 x 641 km, 98.2° (Epoch: 24 August)

Event Time Altitude Azimuth Distance (km) Brightness Sun altitude
Rises 15:19:49 0° 175° (S) 2,962 5.8 -10.8°
Reaches altitude 10° 15:22:04 10° 179° (S) 2,047 5.0 -11.3°
Maximum altitude 15:26:26 55° 256° (WSW) 776 3.4 -12.3°
Drops below altitude 10° 15:30:45 10° 334° (NNW) 2,027 5.8 -13.3°
Sets 15:32:58 0° 338° (NNW) 2,930 6.6 -13.8°
